Location: Iowa City
(41.6610°N, 91.5300°W)
Time: 10:11:45
(UTC-06:00)

ISS - Visible Passes

Search period start: 28 January 2015 00:00
Search period end: 07 February 2015 00:00
Orbit: 402 x 410 km, 51.6° (Epoch: 28 January)

Date Brightness Start Highest point End Pass type
(mag) Time Alt. Az. Time Alt. Az. Time Alt. Az.
28 Jan -1.4 05:22:04 23° SSE 05:22:04 23° SSE 05:23:35 10° SSE visible
03 Feb 0.0 19:58:49 10° SW 19:58:52 10° SW 19:58:52 10° SW visible
04 Feb -2.5 19:07:03 10° SSW 19:09:33 39° S 19:09:33 39° S visible
05 Feb -1.9 18:15:39 10° S 18:18:19 24° SE 18:20:08 15° E visible
05 Feb -0.6 19:51:34 10° WSW 19:52:50 20° W 19:52:50 20° W visible
06 Feb -3.3 18:59:23 10° WSW 19:02:38 73° NNW 19:03:18 52° NNE visible
